CYGFM05

Last updated on Thu Nov 21 2024 00:02:19 GMT+0000 (Coordinated Universal Time)

1 41884U 16078A 24325.54226101 .00018306 00000+0 56224-3 0 9993 2 41884 34.9649 27.5157 0011383 186.0923 173.9657 15.32767222440030
UTC large
Height (km)
Speed (km/s)
/
Latitude / Longitude
Inclination (degrees)
Orbital Period (minutes)
Azimuth
Elevation
Range (km)
Doppler Factor

Next 0 passes for location: London (51.5072 / 0.1276)

Sorry there are no passes over London.